FW2517 Weather Reports


time (UTC)temp
C
wind
direction
speed
KPH
gust
KPH
rain 1hr
cm
rain 24hr
cm
rain mn
cm
humidity
%
barometer
mb
20260508184527 20 223 0.0 11.3 0.00 0.03 0.00 34 1016.6
20260508183025 20 241 0.0 12.9 0.00 0.03 0.00 39 1016.7
20260508181521 19 94 0.0 0.0 0.00 0.03 0.00 36 1016.9
20260508180021 19 355 0.0 0.0 0.00 0.03 0.00 36 1017.0
20260508174521 19 180 0.0 3.2 0.00 0.03 0.00 36 1017.1
20260508173021 18 220 0.0 3.2 0.00 0.03 0.00 38 1017.3
20260508171548 19 169 0.0 1.6 0.00 0.03 0.00 39 1017.5
20260508170054 19 5 0.0 4.8 0.00 0.03 0.00 34 1017.7
20260508164515 18 43 0.0 14.5 0.00 0.03 0.00 34 1018.2
20260508163017 18 51 0.0 9.7 0.00 0.03 0.00 34 1018.3
20260508161511 18 114 0.0 1.6 0.00 0.03 0.00 34 1018.4
20260508160007 18 80 0.0 1.6 0.00 0.03 0.00 33 1018.6
20260508154509 18 178 0.0 1.6 0.00 0.03 0.00 36 1018.7
20260508153003 17 244 0.0 3.2 0.00 0.03 0.00 39 1018.9
20260508151506 17 5 0.0 1.6 0.00 0.03 0.00 36 1018.8
20260508150059 17 296 0.0 1.6 0.00 0.03 0.00 37 1018.7
20260508144609 17 126 0.0 6.4 0.00 0.15 0.00 38 1018.8
20260508143105 17 92 0.0 0.0 0.00 0.15 0.00 38 1019.0
20260508141605 16 85 0.0 6.4 0.00 0.15 0.00 39 1018.9
20260508140051 16 103 6.4 14.5 0.00 0.15 0.00 41 1019.0
20260508134607 16 98 0.0 11.3 0.00 0.15 0.00 42 1019.0
20260508133057 16 82 0.0 3.2 0.00 0.15 0.00 47 1018.8
20260508131548 15 90 6.4 12.9 0.00 0.15 0.00 56 1018.8
20260508130014 15 87 1.6 11.3 0.00 0.15 0.00 64 1018.7
20260508124508 14 91 0.0 0.0 0.00 0.18 0.00 71 1018.5
20260508123005 13 92 0.0 3.2 0.00 0.18 0.00 74 1018.5
20260508121505 12 83 0.0 0.0 0.00 0.18 0.00 77 1018.3
20260508120002 11 83 0.0 0.0 0.00 0.18 0.00 81 1018.2
20260508114501 10 83 0.0 0.0 0.00 0.30 0.00 84 1017.9
20260508113056 8 83 0.0 0.0 0.00 0.30 0.00 83 1017.7
20260508111556 8 83 0.0 0.0 0.00 0.30 0.00 82 1017.4
20260508110052 8 83 0.0 0.0 0.00 0.30 0.00 81 1017.1
20260508104550 8 83 0.0 0.0 0.00 0.36 0.00 81 1017.0
20260508103018 8 83 0.0 0.0 0.00 0.36 0.00 80 1016.6
20260508101517 8 83 0.0 0.0 0.00 0.36 0.00 80 1016.1
20260508100012 8 83 0.0 0.0 0.00 0.36 0.00 80 1016.1
20260508094509 8 83 0.0 0.0 0.00 0.36 0.00 80 1016.0
20260508093011 8 83 0.0 0.0 0.00 0.36 0.00 80 1016.0
20260508091508 8 83 0.0 0.0 0.00 0.36 0.00 80 1015.9
20260508090004 9 83 0.0 0.0 0.00 0.36 0.00 79 1015.8
20260508084502 8 83 0.0 0.0 0.00 0.38 0.00 79 1015.5
20260508083100 9 83 0.0 0.0 0.00 0.38 0.00 79 1015.6
20260508083002 9 83 0.0 0.0 0.00 0.38 0.00 79 1015.5
20260508081607 9 83 0.0 0.0 0.00 0.38 0.00 79 1015.2
20260508080055 9 83 0.0 0.0 0.00 0.38 0.00 79 1015.3
20260508074553 10 83 0.0 0.0 0.00 0.64 0.00 78 1015.1
20260508073107 10 83 0.0 0.0 0.00 0.64 0.00 78 1015.1
20260508071550 10 83 0.0 0.0 0.00 0.64 0.00 78 1015.2
20260508070017 10 83 0.0 0.0 0.00 0.64 0.00 78 1015.0
20260508064516 10 83 0.0 0.0 0.00 1.09 0.00 78 1014.9
20260508063012 11 83 0.0 0.0 0.00 1.09 0.00 78 1014.9
20260508061511 11 83 0.0 0.0 0.00 1.09 0.00 76 1015.0
20260508060008 11 83 0.0 0.0 0.00 1.09 0.00 76 1015.0
20260508054506 11 83 0.0 0.0 0.00 1.42 0.00 75 1015.0
20260508053035 12 83 0.0 0.0 0.00 1.42 0.00 75 1014.9
20260508051530 12 83 0.0 0.0 0.00 1.42 0.00 73 1014.7
20260508050026 13 83 0.0 0.0 0.00 1.42 0.00 73 1014.7
20260508044523 13 83 0.0 0.0 0.00 1.45 0.00 71 1014.6
20260508043020 14 83 0.0 0.0 0.00 1.45 0.00 70 1014.5
20260508041521 14 83 0.0 0.0 0.00 1.45 0.00 70 1014.5
20260508040052 14 83 0.0 0.0 0.00 1.45 0.00 70 1014.3
20260508034549 15 83 0.0 0.0 0.00 1.50 1.45 70 1014.4
20260508033046 15 83 0.0 0.0 0.00 1.50 1.45 72 1014.2
20260508031544 15 83 0.0 0.0 0.00 1.50 1.45 71 1014.2
20260508030037 15 83 0.0 0.0 0.00 1.50 1.45 72 1014.0
20260508024559 15 83 0.0 0.0 0.00 2.39 1.45 74 1014.0
20260508023132 15 83 0.0 0.0 0.00 2.39 1.45 76 1013.7
20260508021530 15 83 0.0 1.6 0.00 2.39 1.45 76 1013.6
20260508020029 15 78 0.0 0.0 0.00 2.39 1.45 78 1013.3
20260508014527 15 78 0.0 0.0 0.00 3.07 1.45 78 1013.2
20260508013032 16 76 0.0 0.0 0.00 3.07 1.45 78 1012.7
20260508011526 16 75 0.0 1.6 0.00 3.07 1.45 78 1012.5
20260508010022 16 69 0.0 1.6 0.00 3.07 1.45 78 1012.0
20260508004536 16 86 0.0 1.6 0.00 3.56 1.45 78 1011.8
20260508003019 16 85 0.0 0.0 0.00 3.56 1.45 77 1011.5
20260508001549 16 80 0.0 8.0 0.03 3.56 1.45 77 1011.1
20260508000045 16 75 0.0 9.7 0.03 3.56 1.45 77 1010.6
20260507234544 17 15 3.2 11.3 0.03 3.66 1.45 76 1010.2
20260507233042 17 47 0.0 16.1 0.03 3.66 1.45 76 1010.2
20260507231544 18 71 4.8 17.7 0.00 3.63 1.42 74 1009.6
20260507230055 18 79 0.0 16.1 0.00 3.63 1.42 74 1009.3
20260507224538 20 38 3.2 16.1 0.00 3.63 1.42 73 1008.7
20260507223037 23 345 4.8 14.5 0.00 3.63 1.42 65 1008.4
20260507221541 23 232 0.0 0.0 0.00 3.63 1.42 66 1007.7
20260507220036 23 229 0.0 1.6 0.00 3.63 1.42 65 1007.6
20260507214536 24 313 0.0 3.2 0.00 3.63 1.42 62 1007.7
20260507213033 24 286 0.0 9.7 0.00 3.63 1.42 63 1007.6
20260507211531 24 209 0.0 14.5 0.00 3.63 1.42 62 1007.4
20260507210031 24 225 0.0 3.2 0.00 3.63 1.42 64 1007.3
20260507204602 23 173 0.0 3.2 0.00 3.63 1.42 67 1007.6
20260507203129 23 151 0.0 19.3 0.00 3.63 1.42 66 1007.6
20260507201555 23 179 4.8 17.7 0.00 3.63 1.42 64 1006.9
20260507200056 24 227 0.0 3.2 0.00 3.63 1.42 62 1007.6
20260507194602 24 288 0.0 3.2 0.00 3.63 1.42 63 1007.7
20260507193049 24 205 0.0 3.2 0.00 3.63 1.42 62 1007.8
20260507191547 23 229 0.0 9.7 0.00 3.63 1.42 65 1008.2
20260507190052 23 245 0.0 3.2 0.00 3.63 1.42 64 1008.6